COSMOS 1275 DEB, 13477

Orbit data source: Space-Track

COSMOS 1275 DEB, 13477 is space debris in LEO originally from a launch on Thu, 04 Jun 1981 UTC launched from the Plesetsk Missile And Space Complex (PKMTR). Debris objects in space refer to the collection of defunct objects orbiting the Earth. Examples of debris include non-operational satellites, rocket bodies, and fragments generated from explosions, collisions, or faulty payload assembly.

Loading next visibility...
Identifier
13477, 1981-053FX
Orbit
LEO
Country
Flag of CISCIS
Related business
Manufacturer
Unknown
Mission
Spacecraft
Bus & Motor
Unknown
Mass
Unknown
Launch date (UTC)
1981-06-04 (45 years ago)
Launch vehicle
Unknown
Launch site
Plesetsk Missile And Space Complex (PKMTR)
Object type
Payload
Rocket body
Debris
Shape & HBR
Unknown shape, 0.1 m
Radar Cross Section
Small (<0.1 m²)

Expand to show TLE details & history
Last TLE update: 23 hours ago

TLE from 23 hours ago
0 COSMOS 1275 DEB
1 13477U 81053FX  26072.30553376  .00006723  00000-0  21187-2 0  9997
2 13477  82.9924  15.6056 0046429 261.5797  98.0131 14.39620868231604
Epoch: 2026-03-13T07:19Z
TLE epoch observation values (Epoch: 2026-03-13T07:19:58.116Z)
Latitude
-0.00003°
Longitude
94.67048°
Altitude
767.514 km
Speed
7.468 km/s
True Right ascension
01h 02m 25s
True Declination
0° 00' 00"
Sunlit
Object was in daylight at epoch
Visualization orbit readout
Latitude
Unknown
Longitude
Unknown
Altitude
Unknown
Speed
Unknown
Apparent Right ascension
Unknown
Apparent Declination
Unknown
Sunlit
N/A
Visualization observer readout
Local Sidereal Time
10:33:56
Azimuth
Unknown
Elevation
Unknown
Doppler factor
Unknown
Orbital elements
Apogee altitude
789.936 km
Perigee altitude
723.682 km
Semi-major axis
7,134.946 km
Eccentricity
0.00464
Inclination
82.9924°
RAAN
15.6056°
Arg. of periapsis
261.5797°
True anomaly
98.53951°
Mean anomaly
98.0131°
Eccentric anomaly
98.27635°
Mean motion
3.60128 °/min
Orbital period
99.96 mins
BSTAR
0.0021187
Loading maneuver chart data...
Computing Atmospheric mass density...
Loading historical data...
Loading historical data...
Loading historical data...
Loading historical data...
Loading historical data...
Loading historical data...
Loading historical data...

Documentation

Showing up to 5 results
|